Home > Weather > Newport News > Past weeks

Flag for U.S.A. Weather for the Past 2 Weeks in Newport News, Virginia, U.S.A.

Now
41 °F

Overcast.


Feels Like: 34 °F
Forecast: 35 / 48 °F
Wind: 12 mph from North

Location: Newport News / Williamsburg International Airport

Current Time: Feb 8, 2016 at 12:17:26 AM

Latest Report: Feb 7, 2016 at 10:54 PM


Visibility: 10 mi

Pressure: 29.75 "Hg

Humidity: 60%

Dew point: 28 °F

Location of Newport NewsLocation

Historic Weather in Newport News — Graph

°F

Newport News Temperature Yesterday

Maximum temperature yesterday: 42 °F (at 3:54 PM)
Minimum temperature yesterday: 27 °F (at 12:54 AM)
Average temperature yesterday: 37 °F

High & Low Weather Summary for the Past Weeks

 TemperatureHumidityPressure
High74 °F (Feb 3, 12:54 PM)100% (Feb 4, 3:54 AM)30.48 "Hg (Feb 4, 3:54 AM)
Low22 °F (Jan 25, 12:54 AM)32% (Jan 30, 2:54 PM)29.58 "Hg (Jan 29, 3:54 AM)
Average44 °F71%30.08 "Hg
* Reported Jan 23 9:54 PM — Feb 7 9:54 PM, Newport News, Weather by CustomWeather, © 2016

Note: Actual official high and low records may vary slightly from our data, if they occured in-between our weather recording intervals... More about our weather records

Advertising

Newport News Weather History for the Previous 24 Hours

 ConditionsComfort  
Time TempWeatherWind HumidityBarometerVisibility
9:54 PM
Sun, Feb 7
41 °FOvercast.13 mph60%29.78 "Hg10 mi
8:54 PM40 °FLight rain. Overcast.14 mph65%29.80 "Hg10 mi
7:54 PM39 °FLight rain. Overcast.10 mph70%29.83 "Hg10 mi
6:54 PM42 °FOvercast.17 mph55%29.84 "Hg10 mi
5:54 PM42 °FOvercast.16 mph55%29.86 "Hg10 mi
4:54 PM41 °FMore clouds than sun.17 mph58%29.90 "Hg10 mi
3:54 PM42 °FMostly cloudy.15 mph51%29.91 "Hg10 mi
2:54 PM41 °FOvercast.16 mph53%29.93 "Hg10 mi
1:54 PM41 °FSunny.12 mph55%29.95 "Hg10 mi
12:54 PM41 °FSunny.12 mph60%29.98 "Hg10 mi
11:54 AM41 °FSunny.14 mph62%30.06 "Hg10 mi
10:54 AM40 °FScattered clouds.10 mph73%30.10 "Hg10 mi
9:54 AM38 °FOvercast.8 mph83%30.11 "Hg10 mi
8:54 AM37 °FOvercast.7 mph86%30.13 "Hg10 mi
7:54 AM35 °FOvercast.6 mph88%30.14 "Hg10 mi
6:54 AM33 °FPassing clouds.6 mph88%30.14 "Hg10 mi
5:54 AM31 °FClear.3 mph92%30.16 "Hg10 mi
4:54 AM30 °FClear.3 mph96%30.16 "Hg10 mi
3:54 AM29 °FClear.No wind93%30.20 "Hg10 mi
2:54 AM28 °FClear.No wind93%30.23 "Hg9 mi
1:54 AM29 °FPassing clouds.No wind93%30.26 "Hg9 mi
12:54 AM27 °FClear.No wind92%30.25 "Hg9 mi
Weather by CustomWeather, © 2016

See weather overviewHow to use our weather pages